Location: Gorlice
(49.6633°N, 21.1693°E)
Time: 23:35:22
(UTC+01:00)

ISS - Visible Passes

Search period start: 23 January 2019 00:00
Search period end: 02 February 2019 00:00
Orbit: 404 x 410 km, 51.6° (Epoch: 24 January)

Date Brightness Start Highest point End Pass type
(mag) Time Alt. Az. Time Alt. Az. Time Alt. Az.
23 Jan -1.7 18:39:43 10° SW 18:41:05 21° SSW 18:41:05 21° SSW visible
24 Jan -2.3 17:48:53 10° SSW 17:51:34 23° SE 17:52:04 22° SE visible
24 Jan -0.5 19:24:29 10° WSW 19:24:47 12° WSW 19:24:47 12° WSW visible
25 Jan -1.6 16:58:28 10° S 17:00:24 15° SE 17:02:20 10° ESE visible
25 Jan -2.9 18:33:10 10° WSW 18:35:41 46° SW 18:35:41 46° SW visible
26 Jan -3.2 17:41:59 10° SW 17:45:08 43° SSE 17:46:30 27° E visible
26 Jan -0.8 19:18:19 10° W 19:19:14 17° W 19:19:14 17° W visible
27 Jan -3.7 18:26:52 10° WSW 18:30:00 76° WNW 18:30:00 76° WNW visible
28 Jan -3.8 17:35:28 10° WSW 17:38:46 75° SSE 17:40:43 23° ENE visible
28 Jan -1.2 19:12:09 10° W 19:13:26 21° WNW 19:13:26 21° WNW visible
29 Jan -3.7 18:20:39 10° W 18:23:56 63° N 18:24:07 61° NNE visible
30 Jan -3.7 17:29:09 10° W 17:32:26 74° NNW 17:34:47 18° ENE visible
30 Jan -1.6 19:05:54 10° WNW 19:07:30 26° WNW 19:07:30 26° WNW visible
31 Jan -3.6 18:14:24 10° W 18:17:40 58° N 18:18:09 51° NE visible
01 Feb -3.6 17:22:53 10° W 17:26:09 60° N 17:28:49 15° ENE visible
01 Feb -2.1 18:59:33 10° WNW 19:01:32 33° WNW 19:01:32 33° WNW visible
